Bangor, ME

8:49 AM EST on December 13, 2019 (GMT -0500)
Bangor International

Weather History for KBGR - October, 2019

Change the Weather History Date:

Saturday, October 26, 2019

  Actual Average Record
Temperature  
Mean Temperature 44 °F 44 °F  
Max Temperature 55 °F 54 °F 78 °F (1963)
Min Temperature 34 °F 34 °F 21 °F (1993)
Degree Days  
Heating Degree Days 20 21  
Month to date heating degree days 398 442  
Since 1 July heating degree days 612 714  
Cooling Degree Days 0 0  
Month to date cooling degree days 0 0  
Year to date cooling degree days 336 317  
Moisture  
Dew Point 37 °F    
Average Humidity 74    
Maximum Humidity 93    
Minimum Humidity 46    
Precipitation  
Precipitation 0.10 in 0.14 in 1.63 in (2017)
Month to date precipitation 4.57 3.53  
Year to date precipitation 43.59 33.61  
Snow  
Snow 0.00 in 0.00 in 7.80 in (1962)
Month to date snowfall 0.0 0.1  
Since 1 July snowfall 0.0 0.1  
Since 1 September snowfall 0.0 0.1  
Snow Depth 0.00 in    
Sea Level Pressure  
Sea Level Pressure 30.21 in    
Wind  
Wind Speed 4 mph ()    
Max Wind Speed 15 mph    
Max Gust Speed 21 mph    
Visibility 9.8 miles    
Events Rain    
T = Trace of Precipitation, MM = Missing Value Source: Averaged Metar Reports

Daily Weather History Graph

Daily Weather History Graph

Search for Another Location

Airport or City:

Astronomy

Oct. 26, 2019 Rise Set
Actual Time 7:04 AM EDT 5:32 PM EDT
Civil Twilight 6:34 AM EDT 6:03 PM EDT
Nautical Twilight 6:00 AM EDT 6:37 PM EDT
Astronomical Twilight 5:26 AM EDT 7:11 PM EDT
Moon 4:47 AM EDT (10/26) 5:13 PM EDT (10/26)
Length of Visible Light 11h 28m
Length of Day
10h 28m
Waning Crescent, 3% of the Moon is Illuminated
Oct 26
Waning Crescent
Oct 27
New
Nov 4
First Quarter
Nov 12
Full
Nov 19
Last Quarter

Hourly Weather History & Observations

Time (EDT) Temp. Windchill Dew Point Humidity Pressure Visibility Wind Dir Wind Speed Gust Speed Precip Events Conditions
12:53 AM 46.9 °F - 43.0 °F 86% 30.14 in 10.0 mi SSW 4.6 mph - 0.00 in Rain Light Rain
1:53 AM 46.0 °F - 44.1 °F 93% 30.16 in 9.0 mi Calm Calm - 0.01 in Rain Light Rain
2:53 AM 46.0 °F - 44.1 °F 93% 30.14 in 6.0 mi Calm Calm - 0.05 in Rain Light Rain
3:53 AM 46.0 °F 44.8 °F 44.1 °F 93% 30.15 in 10.0 mi WNW 3.5 mph - 0.02 in Rain Light Rain
4:53 AM 44.1 °F 39.5 °F 42.1 °F 93% 30.15 in 10.0 mi North 8.1 mph - 0.02 in Rain Light Rain
5:53 AM 43.0 °F 40.3 °F 39.0 °F 86% 30.15 in 10.0 mi NE 4.6 mph - 0.00 in   Light Drizzle
6:53 AM 41.0 °F 39.0 °F 39.0 °F 93% 30.17 in 10.0 mi NW 3.5 mph - 0.00 in   Mostly Cloudy
7:53 AM 42.1 °F 40.2 °F 39.0 °F 89% 30.17 in 10.0 mi NE 3.5 mph - N/A   Clear
8:53 AM 44.1 °F 41.5 °F 39.9 °F 85% 30.22 in 10.0 mi WNW 4.6 mph - N/A   Scattered Clouds
9:53 AM 46.9 °F - 39.9 °F 77% 30.21 in 10.0 mi NNW 4.6 mph - N/A   Scattered Clouds
10:53 AM 50.0 °F - 39.9 °F 68% 30.21 in 10.0 mi NNW 6.9 mph - N/A   Scattered Clouds
11:53 AM 52.0 °F - 37.9 °F 59% 30.20 in 10.0 mi NNW 10.4 mph - N/A   Scattered Clouds
12:53 PM 52.0 °F - 36.0 °F 54% 30.19 in 10.0 mi NW 15.0 mph 20.7 mph N/A   Mostly Cloudy
1:53 PM 52.0 °F - 35.1 °F 53% 30.18 in 10.0 mi NW 10.4 mph - N/A   Mostly Cloudy
2:53 PM 52.0 °F - 36.0 °F 54% 30.18 in 10.0 mi NNW 10.4 mph - N/A   Mostly Cloudy
3:53 PM 54.0 °F - 34.0 °F 47% 30.20 in 10.0 mi NNW 10.4 mph - N/A   Mostly Cloudy
4:53 PM 50.0 °F - 32.0 °F 50% 30.22 in 10.0 mi NW 9.2 mph - N/A   Scattered Clouds
5:53 PM 45.0 °F 40.1 °F 30.9 °F 58% 30.26 in 10.0 mi NNW 9.2 mph - N/A   Partly Cloudy
6:53 PM 44.1 °F 40.1 °F 30.0 °F 58% 30.27 in 10.0 mi NW 6.9 mph - N/A   Clear
7:53 PM 37.9 °F - 30.9 °F 76% 30.29 in 10.0 mi Calm Calm - N/A   Clear
8:53 PM 39.9 °F 36.7 °F 30.9 °F 70% 30.30 in 10.0 mi NNW 4.6 mph - N/A   Clear
9:53 PM 37.0 °F 34.5 °F 30.9 °F 79% 30.30 in 10.0 mi NW 3.5 mph - N/A   Clear
10:53 PM 34.0 °F 31.0 °F 30.0 °F 85% 30.33 in 10.0 mi North 3.5 mph - N/A   Clear
11:53 PM 34.0 °F - 30.9 °F 89% 30.33 in 10.0 mi Calm Calm - N/A   Partly Cloudy